NWS244 UWKD-ULLI

Flight info

Callsign NWS244
Flight time N/A
Altitude 34000
Route APTAR L158 IRGOS T613 DOGOB M864 ELMOD L4 NUDKO T561 ODATI T875 GENPA
Aircraft A321/M-SDE3FGHIRWY/LB1

Departure

Time N/A
Airport Kazan International Airport (UWKD)

Arrival

Time 2026-05-06 19:13
Airport Pulkovo Airport (ULLI)
Time Latitude Longitude Altitude Speed Heading
2026-05-06 18:39 58.63067 32.58703 28701 ft 408 kts 313°
2026-05-06 18:40 58.67379 32.51790 27600 ft 401 kts 313°
2026-05-06 18:40 58.69481 32.48407 27088 ft 397 kts 313°
2026-05-06 18:40 58.71593 32.45005 26547 ft 394 kts 312°
2026-05-06 18:40 58.73682 32.41633 26026 ft 391 kts 312°
2026-05-06 18:41 58.75758 32.38280 25511 ft 388 kts 312°
2026-05-06 18:41 58.77823 32.34948 25013 ft 386 kts 312°
2026-05-06 18:41 58.79873 32.31635 24523 ft 383 kts 312°
2026-05-06 18:41 58.81907 32.28347 24053 ft 381 kts 312°
2026-05-06 18:42 58.83929 32.25068 23597 ft 378 kts 312°
2026-05-06 18:42 58.85934 32.21804 23079 ft 376 kts 311°
2026-05-06 18:42 58.87922 32.18554 22588 ft 374 kts 311°
2026-05-06 18:42 58.89872 32.15364 22123 ft 371 kts 311°
2026-05-06 18:43 58.91843 32.12143 21627 ft 369 kts 311°
2026-05-06 18:43 58.93798 32.08944 21168 ft 367 kts 311°
2026-05-06 18:43 58.95730 32.05771 20697 ft 364 kts 311°
2026-05-06 18:43 58.97651 32.02609 20202 ft 362 kts 311°
2026-05-06 18:44 58.99570 31.99456 19741 ft 360 kts 311°
2026-05-06 18:44 59.01492 31.96299 19265 ft 358 kts 311°
2026-05-06 18:44 59.03388 31.93177 18787 ft 356 kts 311°
2026-05-06 18:44 59.05241 31.90115 18422 ft 351 kts 311°
2026-05-06 18:45 59.07069 31.87094 18303 ft 339 kts 311°
2026-05-06 18:45 59.08832 31.84186 18165 ft 326 kts 311°
2026-05-06 18:45 59.10533 31.81380 18042 ft 315 kts 312°
2026-05-06 18:45 59.11728 31.79786 17939 ft 317 kts 323°
2026-05-06 18:46 59.14308 31.76832 16574 ft 324 kts 314°
2026-05-06 18:46 59.15981 31.73840 15493 ft 331 kts 309°
2026-05-06 18:46 59.17592 31.70637 15069 ft 329 kts 308°
2026-05-06 18:46 59.19153 31.67433 14822 ft 331 kts 308°
2026-05-06 18:47 59.20725 31.64163 14577 ft 330 kts 308°
2026-05-06 18:47 59.22297 31.60892 14340 ft 329 kts 308°
2026-05-06 18:47 59.23865 31.57641 14100 ft 328 kts 308°
2026-05-06 18:47 59.25416 31.54437 13779 ft 322 kts 308°
2026-05-06 18:48 59.26943 31.51284 13347 ft 317 kts 308°
2026-05-06 18:48 59.28454 31.48170 12931 ft 313 kts 309°
2026-05-06 18:48 59.29946 31.45094 12513 ft 310 kts 309°
2026-05-06 18:48 59.31418 31.42052 12090 ft 306 kts 309°
2026-05-06 18:49 59.32872 31.39038 11698 ft 303 kts 309°
2026-05-06 18:49 59.34295 31.36088 11297 ft 300 kts 309°
2026-05-06 18:49 59.35723 31.33126 10916 ft 298 kts 309°
2026-05-06 18:49 59.37140 31.30181 10539 ft 295 kts 309°
2026-05-06 18:50 59.38518 31.27312 10421 ft 283 kts 309°
2026-05-06 18:50 59.39852 31.24539 10203 ft 276 kts 309°
2026-05-06 18:50 59.41157 31.21819 9999 ft 272 kts 309°
2026-05-06 18:50 59.42450 31.19109 9863 ft 272 kts 309°
2026-05-06 18:51 59.43744 31.16394 9730 ft 272 kts 309°
2026-05-06 18:51 59.45035 31.13687 9527 ft 272 kts 309°
2026-05-06 18:51 59.46303 31.11021 9181 ft 270 kts 310°
2026-05-06 18:51 59.47583 31.08324 8840 ft 269 kts 310°
2026-05-06 18:52 59.48859 31.05639 8487 ft 269 kts 310°
2026-05-06 18:52 59.50143 31.02939 8129 ft 268 kts 310°
2026-05-06 18:52 59.51415 31.00261 7781 ft 267 kts 311°
2026-05-06 18:52 59.52684 30.97586 7420 ft 267 kts 311°
2026-05-06 18:53 59.53948 30.94919 7067 ft 266 kts 311°
2026-05-06 18:53 59.55206 30.92249 6722 ft 265 kts 311°
2026-05-06 18:53 59.56443 30.89617 6374 ft 265 kts 312°
2026-05-06 18:53 59.57697 30.86963 6000 ft 264 kts 312°
2026-05-06 18:54 59.58951 30.84305 5637 ft 264 kts 312°
2026-05-06 18:54 59.60197 30.81665 5289 ft 262 kts 313°
2026-05-06 18:54 59.61436 30.79027 4956 ft 261 kts 313°
2026-05-06 18:54 59.62661 30.76417 4616 ft 259 kts 313°
2026-05-06 18:55 59.63888 30.73796 4275 ft 258 kts 313°
2026-05-06 18:55 59.65088 30.71235 3945 ft 257 kts 313°
2026-05-06 18:55 59.66303 30.68653 3604 ft 256 kts 315°
2026-05-06 18:55 59.67688 30.66431 3077 ft 261 kts 325°
2026-05-06 18:56 59.69169 30.64367 2842 ft 255 kts 326°
2026-05-06 18:56 59.70591 30.62397 2774 ft 243 kts 326°
2026-05-06 18:56 59.71936 30.60527 2707 ft 230 kts 326°
2026-05-06 18:56 59.73230 30.58728 2646 ft 226 kts 326°
2026-05-06 18:57 59.74404 30.56791 2657 ft 216 kts 311°
2026-05-06 18:57 59.75138 30.54277 2643 ft 214 kts 290°
2026-05-06 18:57 59.75558 30.51493 2663 ft 202 kts 287°
2026-05-06 18:57 59.75933 30.48974 2638 ft 179 kts 288°
2026-05-06 18:58 59.76273 30.46698 2632 ft 168 kts 288°
2026-05-06 18:58 59.76603 30.44507 2638 ft 164 kts 288°
2026-05-06 18:58 59.76932 30.42325 2676 ft 174 kts 288°
2026-05-06 18:58 59.77298 30.39963 3406 ft 180 kts 288°
2026-05-06 18:59 59.77692 30.37428 3510 ft 206 kts 288°
2026-05-06 18:59 59.78125 30.34548 3482 ft 226 kts 287°
2026-05-06 18:59 59.78545 30.31500 3485 ft 231 kts 279°
2026-05-06 18:59 59.78375 30.28400 3509 ft 233 kts 246°
2026-05-06 19:00 59.77385 30.25926 3510 ft 233 kts 213°
2026-05-06 19:00 59.75912 30.24559 3515 ft 234 kts 199°
2026-05-06 19:00 59.74367 30.23527 3505 ft 235 kts 197°
2026-05-06 19:00 59.73337 30.22872 3507 ft 234 kts 197°
2026-05-06 19:01 59.71258 30.21565 3507 ft 234 kts 197°
2026-05-06 19:01 59.69702 30.20595 3512 ft 234 kts 197°
2026-05-06 19:01 59.68147 30.19629 3514 ft 234 kts 197°
2026-05-06 19:01 59.66589 30.18893 3510 ft 233 kts 180°
2026-05-06 19:02 59.65043 30.19657 3510 ft 231 kts 147°
2026-05-06 19:02 59.63958 30.21931 3511 ft 229 kts 115°
2026-05-06 19:02 59.63347 30.24841 3505 ft 230 kts 108°
2026-05-06 19:02 59.62829 30.27830 3502 ft 230 kts 107°
2026-05-06 19:03 59.62324 30.30834 3503 ft 230 kts 107°
2026-05-06 19:03 59.61823 30.33837 3504 ft 230 kts 107°
2026-05-06 19:03 59.61491 30.35827 3499 ft 230 kts 107°
2026-05-06 19:03 59.60827 30.39811 3506 ft 230 kts 107°
2026-05-06 19:04 59.60326 30.42816 3509 ft 230 kts 107°
2026-05-06 19:04 59.59825 30.45819 3509 ft 231 kts 107°
2026-05-06 19:04 59.59323 30.48828 3506 ft 231 kts 107°
2026-05-06 19:04 59.58821 30.51836 3505 ft 231 kts 107°
2026-05-06 19:05 59.58490 30.53826 3506 ft 231 kts 107°
2026-05-06 19:05 59.57825 30.57813 3503 ft 231 kts 107°
2026-05-06 19:05 59.57325 30.60821 3507 ft 231 kts 106°
2026-05-06 19:05 59.57122 30.63925 3502 ft 229 kts 82°
2026-05-06 19:06 59.57644 30.66845 3513 ft 227 kts 54°
2026-05-06 19:06 59.58790 30.68926 3498 ft 226 kts 27°
2026-05-06 19:06 59.60291 30.69729 3504 ft 226 kts 359°
2026-05-06 19:06 59.61326 30.69525 3505 ft 226 kts 351°
2026-05-06 19:07 59.63377 30.68893 3503 ft 227 kts 351°
2026-05-06 19:07 59.64442 30.68571 3506 ft 227 kts 351°
2026-05-06 19:07 59.65995 30.68047 3513 ft 227 kts 345°
2026-05-06 19:07 59.67861 30.66234 3502 ft 227 kts 324°
2026-05-06 19:08 59.69152 30.64413 3503 ft 228 kts 325°
2026-05-06 19:08 59.70006 30.63215 3466 ft 227 kts 325°
2026-05-06 19:08 59.71294 30.61420 3140 ft 226 kts 326°
2026-05-06 19:08 59.72567 30.59652 2866 ft 220 kts 326°
2026-05-06 19:09 59.73783 30.57944 2683 ft 210 kts 323°
2026-05-06 19:09 59.74754 30.55816 2521 ft 210 kts 302°
2026-05-06 19:09 59.75424 30.52244 2527 ft 204 kts 288°
2026-05-06 19:09 59.75815 30.49671 2349 ft 187 kts 288°
2026-05-06 19:10 59.76056 30.48085 2201 ft 176 kts 288°
2026-05-06 19:10 59.76395 30.45840 2016 ft 166 kts 288°
2026-05-06 19:10 59.76723 30.43670 1772 ft 163 kts 288°
2026-05-06 19:10 59.77046 30.41526 1538 ft 162 kts 288°
2026-05-06 19:11 59.77359 30.39450 1305 ft 151 kts 288°
2026-05-06 19:11 59.77654 30.37485 1087 ft 146 kts 287°
2026-05-06 19:11 59.78031 30.34955 816 ft 143 kts 287°
2026-05-06 19:11 59.78215 30.33673 676 ft 142 kts 286°
2026-05-06 19:12 59.78496 30.31794 469 ft 142 kts 287°
2026-05-06 19:12 59.78776 30.29950 280 ft 141 kts 287°
2026-05-06 19:12 59.79057 30.28086 115 ft 141 kts 287°
2026-05-06 19:12 59.79308 30.26428 83 ft 103 kts 287°
2026-05-06 19:13 59.79462 30.25387 84 ft 52 kts 285°
2026-05-06 19:13 59.79494 30.25072 83 ft 17 kts 272°
2026-05-06 19:13 59.79508 30.25000 86 ft 1 kts 354°
2026-05-06 19:13 59.79511 30.25012 87 ft 1 kts 61°
2026-05-06 19:14 59.79514 30.25062 83 ft 8 kts 90°
2026-05-06 19:14 59.79495 30.25199 85 ft 13 kts 105°
2026-05-06 19:14 59.79483 30.25396 84 ft 17 kts 90°
2026-05-06 19:14 59.79500 30.25635 85 ft 17 kts 75°
2026-05-06 19:15 59.79521 30.25788 85 ft 11 kts 75°
2026-05-06 19:15 59.79535 30.25892 88 ft 6 kts 76°
2026-05-06 19:15 59.79542 30.25977 89 ft 7 kts 85°
2026-05-06 19:15 59.79540 30.26072 90 ft 7 kts 97°
2026-05-06 19:16 59.79525 30.26182 88 ft 9 kts 110°
2026-05-06 19:16 59.79502 30.26319 84 ft 11 kts 107°
2026-05-06 19:16 59.79516 30.26382 86 ft 6 kts 18°
2026-05-06 19:16 59.79572 30.26396 82 ft 11 kts 10°
2026-05-06 19:17 59.79632 30.26429 83 ft 11 kts 17°
2026-05-06 19:17 59.79669 30.26457 84 ft 5 kts 34°
2026-05-06 19:17 59.79670 30.26535 83 ft 6 kts 105°
2026-05-06 19:17 59.79666 30.26562 86 ft 0 kts 106°